Terminal Aerodrome Forecast
Issued by NWS

Current Version | Previous Version | Graphics & Text | Print | Product List | Glossary On
Versions: 1 2 3 4 5 6 7 8 9 10 11 12 13 14 15 16 17 18 19 20 21 22 23 24 25 26 27 28 29 30 31 32 33 34 35 36 37 38 39 40 41 42 43 44 45 46 47 48 49 50
000
FTUS41 KRNK 190157 AAA
TAFLWB
TAF AMD
KLWB 190157Z 1902/1924 33005KT P6SM -RA SCT025 OVC035
     FM190800 31006KT P6SM OVC015
     FM191300 31006KT P6SM OVC025
     FM191600 31006KT P6SM SCT040=

USA.gov is the U.S. government's official web portal to all federal, state and local government web resources and services.